| time (UTC) | temp F | wind direction | speed MPH | gust MPH | rain 1hr in | rain 24hr in | rain mn in | humidity % | barometer mb |
| 20260505214547 | 43 | 90 | 8.0 | 15.0 | 0.00 | 0.00 | 0.00 | 69 | 1006.9 |
| 20260505213048 | 43 | 72 | 6.0 | 13.0 | 0.00 | 0.00 | 0.00 | 70 | 1006.8 |
| 20260505211546 | 44 | 54 | 6.0 | 11.0 | 0.00 | 0.00 | 0.00 | 70 | 1006.6 |
| 20260505210045 | 44 | 75 | 7.0 | 14.0 | 0.00 | 0.00 | 0.00 | 70 | 1006.5 |
| 20260505204544 | 44 | 86 | 5.0 | 15.0 | 0.00 | 0.00 | 0.00 | 69 | 1006.7 |
| 20260505203049 | 44 | 47 | 9.0 | 16.0 | 0.00 | 0.00 | 0.00 | 68 | 1006.5 |
| 20260505201546 | 44 | 78 | 11.0 | 16.0 | 0.00 | 0.00 | 0.00 | 68 | 1006.3 |
| 20260505200042 | 44 | 77 | 10.0 | 18.0 | 0.00 | 0.00 | 0.00 | 69 | 1006.3 |
| 20260505194548 | 45 | 53 | 11.0 | 16.0 | 0.00 | 0.00 | 0.00 | 69 | 1006.3 |
| 20260505193101 | 44 | 84 | 11.0 | 18.0 | 0.00 | 0.00 | 0.00 | 70 | 1006.6 |
| 20260505191542 | 44 | 68 | 11.0 | 18.0 | 0.00 | 0.00 | 0.00 | 71 | 1006.5 |
| 20260505190043 | 44 | 53 | 9.0 | 18.0 | 0.00 | 0.00 | 0.00 | 72 | 1006.6 |
| 20260505184540 | 44 | 60 | 10.0 | 17.0 | 0.00 | 0.00 | 0.00 | 72 | 1006.6 |
| 20260505183040 | 44 | 65 | 9.0 | 15.0 | 0.00 | 0.00 | 0.00 | 72 | 1006.6 |
| 20260505181540 | 45 | 86 | 11.0 | 15.0 | 0.00 | 0.00 | 0.00 | 71 | 1006.7 |
| 20260505180043 | 45 | 32 | 8.0 | 18.0 | 0.00 | 0.00 | 0.00 | 71 | 1006.7 |
| 20260505174539 | 44 | 101 | 6.0 | 18.0 | 0.00 | 0.00 | 0.00 | 69 | 1007.0 |
| 20260505173037 | 44 | 84 | 13.0 | 18.0 | 0.00 | 0.00 | 0.00 | 72 | 1006.8 |
| 20260505171541 | 44 | 60 | 8.0 | 15.0 | 0.00 | 0.00 | 0.00 | 75 | 1006.6 |
| 20260505170038 | 44 | 53 | 10.0 | 15.0 | 0.00 | 0.00 | 0.00 | 76 | 1006.7 |
| 20260505164539 | 44 | 45 | 12.0 | 18.0 | 0.00 | 0.00 | 0.00 | 76 | 1006.7 |
| 20260505163040 | 44 | 86 | 8.0 | 16.0 | 0.00 | 0.00 | 0.00 | 75 | 1006.6 |
| 20260505161530 | 44 | 58 | 11.0 | 19.0 | 0.00 | 0.00 | 0.00 | 75 | 1006.4 |
| 20260505153034 | 44 | 55 | 12.0 | 19.0 | 0.00 | 0.00 | 0.00 | 74 | 1006.1 |
| 20260505151527 | 44 | 67 | 13.0 | 22.0 | 0.00 | 0.00 | 0.00 | 74 | 1006.2 |
| 20260505130111 | 47 | 65 | 6.0 | 11.0 | 0.00 | 0.00 | 0.00 | 71 | 1004.7 |
| 20260505124605 | 47 | 34 | 7.0 | 13.0 | 0.00 | 0.00 | 0.00 | 71 | 1004.5 |
| 20260505123113 | 47 | 61 | 8.0 | 14.0 | 0.00 | 0.00 | 0.00 | 70 | 1004.3 |
| 20260505121554 | 47 | 46 | 6.0 | 11.0 | 0.00 | 0.00 | 0.00 | 71 | 1004.0 |
| 20260505120056 | 47 | 59 | 5.0 | 10.0 | 0.00 | 0.00 | 0.00 | 70 | 1003.8 |
| 20260505114551 | 47 | 53 | 4.0 | 9.0 | 0.00 | 0.00 | 0.00 | 69 | 1003.6 |
| 20260505113051 | 47 | 57 | 4.0 | 9.0 | 0.00 | 0.00 | 0.00 | 68 | 1003.6 |
| 20260505111544 | 48 | 49 | 4.0 | 7.0 | 0.00 | 0.00 | 0.00 | 66 | 1003.1 |
| 20260505101536 | 49 | 38 | 4.0 | 7.0 | 0.00 | 0.00 | 0.00 | 66 | 1003.4 |
| 20260505100033 | 49 | 45 | 3.0 | 6.0 | 0.00 | 0.00 | 0.00 | 65 | 1003.4 |
| 20260505094531 | 50 | 45 | 3.0 | 6.0 | 0.00 | 0.00 | 0.00 | 64 | 1003.2 |
| 20260505093030 | 50 | 37 | 2.0 | 5.0 | 0.00 | 0.00 | 0.00 | 64 | 1003.6 |
| 20260505091530 | 50 | 37 | 2.0 | 4.0 | 0.00 | 0.00 | 0.00 | 64 | 1003.4 |
| 20260505090025 | 51 | 9 | 2.0 | 5.0 | 0.00 | 0.00 | 0.00 | 64 | 1003.3 |
| 20260505084535 | 51 | 1 | 0.0 | 6.0 | 0.00 | 0.00 | 0.00 | 63 | 1003.3 |
| 20260505083039 | 52 | 15 | 2.0 | 5.0 | 0.00 | 0.00 | 0.00 | 62 | 1003.4 |
| 20260505081523 | 52 | 27 | 3.0 | 5.0 | 0.00 | 0.00 | 0.00 | 62 | 1003.4 |
| 20260505080033 | 53 | 11 | 2.0 | 10.0 | 0.00 | 0.00 | 0.00 | 61 | 1003.5 |
| 20260505074518 | 53 | 356 | 0.0 | 0.0 | 0.00 | 0.00 | 0.00 | 59 | 1003.3 |
| 20260505073024 | 53 | 32 | 0.0 | 4.0 | 0.00 | 0.00 | 0.00 | 58 | 1003.4 |
| 20260505071510 | 54 | 22 | 4.0 | 9.0 | 0.00 | 0.00 | 0.00 | 57 | 1002.9 |
| 20260505070008 | 54 | 20 | 5.0 | 12.0 | 0.00 | 0.00 | 0.00 | 56 | 1002.8 |
| 20260505064506 | 55 | 29 | 9.0 | 15.0 | 0.00 | 0.00 | 0.00 | 55 | 1002.1 |
| 20260505063004 | 55 | 338 | 9.0 | 13.0 | 0.00 | 0.00 | 0.00 | 54 | 1002.7 |
| 20260505061501 | 55 | 356 | 11.0 | 16.0 | 0.00 | 0.00 | 0.00 | 54 | 1002.3 |
| 20260505060103 | 55 | 1 | 11.0 | 18.0 | 0.00 | 0.00 | 0.00 | 54 | 1002.5 |
| 20260505054601 | 55 | 11 | 10.0 | 17.0 | 0.00 | 0.00 | 0.00 | 55 | 1002.6 |
| 20260505053100 | 56 | 9 | 5.0 | 14.0 | 0.00 | 0.00 | 0.00 | 55 | 1002.2 |
| 20260505051557 | 56 | 24 | 4.0 | 9.0 | 0.00 | 0.00 | 0.00 | 56 | 1002.2 |
| 20260505041602 | 56 | 12 | 9.0 | 16.0 | 0.00 | 0.00 | 0.00 | 53 | 1002.0 |
| 20260505040057 | 57 | 13 | 11.0 | 25.0 | 0.00 | 0.00 | 0.00 | 53 | 1001.8 |
| 20260505034554 | 58 | 12 | 12.0 | 21.0 | 0.00 | 0.00 | 0.00 | 48 | 1001.6 |
| 20260505033054 | 57 | 16 | 12.0 | 27.0 | 0.00 | 0.00 | 0.00 | 50 | 1000.4 |
| 20260505031554 | 58 | 1 | 18.0 | 24.0 | 0.00 | 0.00 | 0.00 | 49 | 1000.0 |
| 20260505030110 | 58 | 11 | 18.0 | 33.0 | 0.00 | 0.00 | 0.00 | 50 | 999.4 |
| 20260505024558 | 59 | 351 | 16.0 | 29.0 | 0.00 | 0.00 | 0.00 | 47 | 999.3 |
| 20260505023052 | 60 | 38 | 18.0 | 31.0 | 0.00 | 0.00 | 0.00 | 43 | 998.4 |
| 20260505021552 | 61 | 25 | 18.0 | 32.0 | 0.00 | 0.00 | 0.00 | 42 | 997.9 |
| 20260505020050 | 63 | 342 | 20.0 | 31.0 | 0.00 | 0.00 | 0.00 | 36 | 998.0 |
| 20260505014603 | 65 | 340 | 13.0 | 25.0 | 0.00 | 0.00 | 0.00 | 33 | 997.5 |
| 20260505013052 | 65 | 1 | 12.0 | 22.0 | 0.00 | 0.00 | 0.00 | 34 | 997.1 |
| 20260505011550 | 65 | 1 | 14.0 | 22.0 | 0.00 | 0.00 | 0.00 | 33 | 997.0 |
| 20260505010055 | 67 | 1 | 12.0 | 21.0 | 0.00 | 0.00 | 0.00 | 28 | 996.3 |
| 20260505004550 | 68 | 11 | 11.0 | 20.0 | 0.00 | 0.00 | 0.00 | 28 | 996.3 |
| 20260505003056 | 68 | 7 | 9.0 | 21.0 | 0.00 | 0.00 | 0.00 | 27 | 996.3 |
| 20260505001546 | 69 | 7 | 10.0 | 20.0 | 0.00 | 0.00 | 0.00 | 26 | 996.4 |
| 20260505000051 | 70 | 10 | 8.0 | 13.0 | 0.00 | 0.00 | 0.00 | 25 | 996.3 |
| 20260504234546 | 71 | 1 | 9.0 | 17.0 | 0.00 | 0.00 | 0.00 | 24 | 996.2 |
| 20260504233047 | 74 | 277 | 7.0 | 12.0 | 0.00 | 0.00 | 0.00 | 19 | 996.3 |
| 20260504231544 | 74 | 309 | 5.0 | 18.0 | 0.00 | 0.00 | 0.00 | 19 | 996.1 |
| 20260504230044 | 74 | 249 | 5.0 | 14.0 | 0.00 | 0.00 | 0.00 | 19 | 996.0 |
| 20260504224543 | 74 | 254 | 7.0 | 17.0 | 0.00 | 0.00 | 0.00 | 18 | 996.0 |
| 20260504223058 | 75 | 351 | 6.0 | 17.0 | 0.00 | 0.00 | 0.00 | 17 | 995.9 |
| 20260504221541 | 74 | 259 | 8.0 | 18.0 | 0.00 | 0.00 | 0.00 | 18 | 996.1 |
| 20260504220039 | 74 | 257 | 5.0 | 20.0 | 0.00 | 0.00 | 0.00 | 18 | 996.4 |